Regional Weather Roundup
Issued by NWS

Home | Current Version | Previous Version | Text Only | Print | Product List | Glossary Off
Versions: 1 2 3 4 5 6 7 8 9 10 11 12 13 14 15 16 17 18 19 20 21 22 23 24 25 26 27 28 29 30 31 32 33 34 35 36 37 38 39 40 41 42 43 44 45 46 47 48 49 50

000
ASUS43 KMPX 271610
RWRMN
WEATHER ROUNDUP FOR MINNESOTA
NATIONAL WEATHER SERVICE TWIN CITIES/CHANHASSEN MN
1100 AM CDT TUE JUN 27 2017


NOTE: "FAIR" INDICATES FEW OR NO CLOUDS BELOW 12,000 FEET WITH NO
SIGNIFICANT WEATHER AND/OR OBSTRUCTIONS TO VISIBILITY. N/A MEANS
CURRENT SKY AND/OR WEATHER CONDITIONS ARE NOT AVAILABLE.

MNZ060>063-068>070-271700-
   Twin Cities Metro

CITY           SKY/WX    TMP DP  RH WIND       PRES   REMARKS
TWIN CITIES    MOSUNNY   71  43  36 SW8       30.05F
ST PAUL        MOSUNNY   70  45  40 SW10      30.06F
CRYSTAL        SUNNY     71  42  35 SW7       30.03F
BLAINE         MOSUNNY   72  43  35 SW9G17    30.05F
LAKEVILLE      SUNNY     70  45  40 SW6       30.06F
EDEN PRAIRIE   SUNNY     72  44  36 SW9       30.04F
SOUTH ST PAUL  MOSUNNY   71  41  34 SW8       30.05F
LAKE ELMO      FAIR      70  48  46 SW5       30.07F
$$
MNZ001>005-007-008-013>017-022>024-027-028-271700-
   Northwest Minnesota

CITY           SKY/WX    TMP DP  RH WIND       PRES   REMARKS
BEMIDJI        SUNNY     68  42  38 SW12G20   29.94F
HALLOCK        CLOUDY    70  46  43 S15G24    29.81F
ROSEAU         SUNNY     70  48  46 S15G25    29.86F
WARROAD        SUNNY     68  50  52 S14G20    29.87F
THIEF RVR FALL PTSUNNY   69  43  38 SW20G26   29.88F
CROOKSTON      CLOUDY    70  46  43 S17       29.87F
FOSSTON        CLOUDY    66  41  39 S22       29.92F
DETROIT LAKES  MOSUNNY   68  41  37 S18G26    29.94F
MOORHEAD       MOSUNNY   70  39  32 S20G25    29.90F
PARK RAPIDS    SUNNY     70  39  32 S20G25    29.96F
MAHNOMEN       FAIR      67  41  38 SW22      29.91F
$$
MNZ006-009>011-018-025>026-271700-
   North Central Minnesota

CITY           SKY/WX    TMP DP  RH WIND       PRES   REMARKS
BAUDETTE       MOSUNNY   69  46  43 SW10G22   29.90F
FLAG ISLAND    SUNNY     66  45  45 S9G18     29.85F
INTL FALLS     SUNNY     69  45  41 SW13G21   29.93F
WASKISH        SUNNY     70  46  43 SW10      29.92F
BIG FORK       SUNNY     70  46  43 S10G20    29.96F
LONGVILLE      MOSUNNY   68  43  40 S14G20    29.98F
GRAND RAPIDS   SUNNY     68  44  42 S12G20    30.00F
CRANE LAKE     SUNNY     66  45  45 SW6       29.96F
ORR            MOSUNNY   66  43  42 W8G17     29.94F
COOK           MOSUNNY   68  45  42 W10       29.97F
WALKER         FAIR      66  44  45 S13       29.96F
$$
MNZ012-019>021-037-271700-
   Northeast Minnesota

CITY           SKY/WX    TMP DP  RH WIND       PRES   REMARKS
DULUTH         SUNNY     69  45  41 W14G20    30.00F
ELY            SUNNY     66  39  37 SW13      29.97F
HIBBING        SUNNY     67  42  40 W9        29.98F
EVELETH        SUNNY     67  33  29 SW7       30.00F
DULUTH HARBOR  SUNNY     72  46  40 W13       30.00F
TWO HARBORS    SUNNY     72  52  49 W9        29.98F
SILVER BAY     SUNNY     72  45  37 W6        29.97F
GRAND MARAIS     N/A     51  45  79 W9        29.97F
G MARAIS ARPRT MOSUNNY   64  43  45 W6        29.99F
$$
MNZ029>031-032-039>041-046>048-054>057-064-271700-
   West Central Minnesota

CITY           SKY/WX    TMP DP  RH WIND       PRES   REMARKS
FERGUS FALLS   MOSUNNY   70  45  40 S20       29.92F
WHEATON        PTSUNNY   70  39  32 S18G24    29.96F
MORRIS         PTSUNNY   72  43  35 S17G24    29.96F
ALEXANDRIA     MOSUNNY   67  44  43 S16       30.00F
ELBOW LAKE     FAIR      68  44  42 S18G25    29.96F
WADENA         MOSUNNY   66  43  42 S15G21    29.97F
GLENWOOD       CLOUDY    66  45  45 S15       30.00F
APPLETON       MOSUNNY   70  41  35 S13       29.96F
BENSON         SUNNY     72  39  30 SW17      29.99F
ORTONVILLE     PTSUNNY   68  43  40 S13G23    29.96F
MADISON        MOSUNNY   72  43  35 S21       29.98F
WILLMAR        FAIR      72  43  35 S6        30.02F
$$
MNZ033>034-036-042>043-049>051-058-059-271700-
   Central Minnesota

CITY           SKY/WX    TMP DP  RH WIND       PRES   REMARKS
ST CLOUD       MOSUNNY   70  42  36 S14G20    30.02F
SAUK CENTRE    FAIR      67  40  37 SW16G23   30.00F
PAYNESVILLE    PTSUNNY   70  37  30 SW14      30.03F
AITKIN         SUNNY     68  45  42 SW14G23   29.99F
PINE RIVER     CLOUDY    66  45  45 S14G21    30.02F
BRAINERD       MOSUNNY   68  42  38 SW15      30.00F
STAPLES        MOSUNNY   66  37  34 SW13      29.99F
LONG PRAIRIE   FAIR      68  43  40 S13G21    30.00F
LITTLE FALLS   MOSUNNY   70  36  28 SW12G17   30.01F
LITCHFIELD     MOSUNNY   70  45  40 SE3       30.03F
BUFFALO        SUNNY     70  40  34 S8        30.04F
MAPLE LAKE     SUNNY     71  45  38 S7        30.04F
HUTCHINSON     CLOUDY    69  43  38 S7        30.04F
$$
MNZ037-044-045-052-053-271700-
   East Central Minnesota

CITY           SKY/WX    TMP DP  RH WIND       PRES   REMARKS
PRINCETON      SUNNY     73  43  33 S10G16    30.03F
MORA           MOSUNNY   66  43  42 SW10      30.04F
CAMBRIDGE      MOSUNNY   72  48  43 SW12G18   30.02F
RUSH CITY      SUNNY     70  45  40 SW10G17   30.04F
MOOSE LAKE     SUNNY     68  43  40 SW7       30.00F
HINCKLEY       FAIR      70  46  43 SW12      30.03F
CLOQUET        SUNNY     70  37  30 W9G18     30.01F
MCGREGOR       SUNNY     68  43  40 SW10G22   30.01F
$$
MNZ071>073-080-081-089-090-097-098-271700-
   Southwest Minnesota

CITY           SKY/WX    TMP DP  RH WIND       PRES   REMARKS
MONTEVIDEO     SUNNY     72  45  37 SW15      29.99F
GRANITE FALLS  MOSUNNY   72  46  39 S18       30.02F
CANBY          CLOUDY    70  42  36 S13G18    29.99F
MARSHALL       PTSUNNY   70  43  37 S21       30.00F
REDWOOD FALLS  SUNNY     72  40  31 S14G23    30.01F
OLIVIA         SUNNY     70  43  37 S9G17     30.02F
PIPESTONE      SUNNY     70  43  37 S20G28    30.00F
WINDOM         SUNNY     70  41  35 S13G18    30.05S
WORTHINGTON    MOSUNNY   68  44  42 S15G21    30.05F
JACKSON        SUNNY     70  41  35 S16       30.07F
TRACY          CLOUDY    69  43  38 S17G23    30.02F
SLAYTON        PTSUNNY   67  43  41 S17G25    30.05F
$$
MNZ065>067-074>077-082>085-091>093-271700-
   South Central Minnesota

CITY           SKY/WX    TMP DP  RH WIND       PRES   REMARKS
MANKATO        MOSUNNY   68  40  35 S9        30.06F
NEW ULM        MOSUNNY   70  39  32 S9G18     30.04F
ST JAMES       SUNNY     70  41  35 S12       30.06F
FAIRMONT       SUNNY     69  43  38 S14G20    30.07F
GLENCOE        SUNNY     71  44  38 S10       30.03F
FARIBAULT      SUNNY     70  43  37 S9        30.07F
OWATONNA       SUNNY     70  43  37 S12       30.08F
WASECA         SUNNY     70  43  37 S8G17     30.09F
ALBERT LEA     SUNNY     70  39  32 S8        30.08F
$$
MNZ078>079-086>088-094>096-271700-
   Southeast Minnesota

CITY           SKY/WX    TMP DP  RH WIND       PRES   REMARKS
ROCHESTER      SUNNY     69  42  37 SW9       30.10F
RED WING       SUNNY     72  39  30 W7        30.05F
STANTON        SUNNY     71  43  37 SW9       30.06F
DODGE CENTER   SUNNY     68  39  34 S12       30.09F
WINONA         SUNNY     70  45  40 NW3       30.09F
AUSTIN         SUNNY     66  43  42 S6        30.09F
PRESTON        SUNNY     68  44  42 SW8       30.10F
$$
ABBREVIATIONS USED IN REMARKS
   TC - TEMPERATURES IN CELSIUS
  WCI - WIND CHILL INDEX
   HX - HEAT INDEX
  VSB - VISIBILITY
$$




USA.gov is the U.S. government's official web portal to all federal, state and local government web resources and services.